This is the latest recevied weather packets stored in our database for station/object KF0JHJ. If no packets are shown the sender has not sent any weather packets the latest 10 day(s).
| Time | Temp. | Humidity | Pressure | Rain* | Wind** | Luminosity | Snow |
|---|---|---|---|---|---|---|---|
| 1777656463 | 10° C | 44% | 1017.2 hPa | - | - | 201 W/m² | - |
| 1777656158 | 11.11° C | 42% | 1016.8 hPa | - | - | 193 W/m² | - |
| 1777655854 | 11.11° C | 44% | 1017 hPa | - | - | 722 W/m² | - |
| 1777655552 | 10.56° C | 44% | 1017.1 hPa | - | - | 358 W/m² | - |
| 1777655248 | 10° C | 44% | 1016.8 hPa | - | - | 574 W/m² | - |
| 1777654945 | 10.56° C | 44% | 1017 hPa | - | - | 657 W/m² | - |
| 1777654643 | 10° C | 46% | 1017.1 hPa | - | - | 702 W/m² | - |
| 1777654340 | 8.89° C | 45% | 1017.2 hPa | - | - | 237 W/m² | - |
| 1777654038 | 9.44° C | 44% | 1016.9 hPa | - | - | 223 W/m² | - |
| 1777653735 | 9.44° C | 46% | 1017.1 hPa | - | - | 240 W/m² | - |
| 1777653431 | 9.44° C | 46% | 1017.2 hPa | - | - | 303 W/m² | - |
| 1777653128 | 9.44° C | 47% | 1016.9 hPa | - | - | 223 W/m² | - |
| 1777652824 | 9.44° C | 44% | 1017.1 hPa | - | - | 224 W/m² | - |
| 1777652521 | 11.11° C | 46% | 1016.9 hPa | - | - | 614 W/m² | - |
| 1777652218 | 10.56° C | 47% | 1017 hPa | - | - | 358 W/m² | - |
| 1777651915 | 10.56° C | 49% | 1016.7 hPa | - | - | 272 W/m² | - |
| 1777651611 | 9.44° C | 46% | 1016.9 hPa | - | - | 344 W/m² | - |
| 1777651309 | 8.89° C | 47% | 1016.8 hPa | - | - | 307 W/m² | - |
| 1777651005 | 8.89° C | 48% | 1017 hPa | - | - | 256 W/m² | - |
| 1777650703 | 8.89° C | 47% | 1016.9 hPa | - | - | 214 W/m² | - |
| 1777650400 | 8.89° C | 47% | 1017 hPa | - | - | 220 W/m² | - |
| 1777650097 | 8.89° C | 47% | 1016.8 hPa | - | - | 423 W/m² | - |
| 1777649794 | 9.44° C | 50% | 1017 hPa | - | - | 351 W/m² | - |
| 1777649491 | 8.89° C | 49% | 1016.9 hPa | - | - | 219 W/m² | - |
| 1777649187 | 8.89° C | 49% | 1017 hPa | - | - | 209 W/m² | - |
* Rain since midnight (hover to see other rain measurements)
** Current wind speed in m/s (hover to see current wind gust speed)